STARLINK-31917, 59669

Orbit data source: Space-Track

STARLINK-31917, 59669 is a payload satellite owned by SpaceX/Seattle (US) in LEO that was launched on Mon, 06 May 2024 UTC via an FALCON 9 launch vehicle from the Air Force Eastern Test Range (AFETR). Payload-class satellites include a variety of spacecraft equipped with specific instruments for various scientific and technological missions. These include communications satellites like Starlink; space stations such as the ISS; scientific satellites like the Hubble; Earth observation satellites from companies like Planet Labs, Umbra, and HawkEye 360; GPS; miniature CubeSats for education and research; and military/defense satellites.

Loading next visibility...
Identifier
59669, 2024-084R
Orbit
LEO
Country
Flag of USUS
Related business
Manufacturer
SpaceX/Seattle
Mission
Operational Commercial Communications
Bus & Motor
STARLINK V2M, Unknown motor
Mass
730 kg wet, ~700 kg dry
Launch date (UTC)
2024-05-06 (1 year ago)
Launch vehicle
FALCON 9
Launch site
Air Force Eastern Test Range (AFETR)
Object type
Payload
Rocket body
Debris
Shape & HBR
Box + 2 Pan, 17.7 m
Radar Cross Section
33.884 m², Large (>1 m²)

Expand to show TLE details & history
Last TLE update: 5 hours ago

TLE from 5 hours ago
0 STARLINK-31917
1 59669U 24084R   25288.60167655  .00000979  00000-0  45105-4 0  9998
2 59669  43.0015 141.1839 0003326 282.8992  77.1488 15.27579402 82187
Epoch: 2025-10-15T14:26Z
TLE epoch observation values (Epoch: 2025-10-15T14:26:24.853Z)
Latitude
-0.00004°
Longitude
-99.7931°
Altitude
482.32 km
Speed
7.626 km/s
True Right ascension
09h 24m 44s
True Declination
0° 00' 00"
Sunlit
Object was in daylight at epoch
Visualization orbit readout
Latitude
Unknown
Longitude
Unknown
Altitude
Unknown
Speed
Unknown
Apparent Right ascension
Unknown
Apparent Declination
Unknown
Sunlit
N/A
Visualization observer readout
Local Sidereal Time
13:46:19
Azimuth
Unknown
Elevation
Unknown
Doppler factor
Unknown
Orbital elements
Apogee altitude
487.278 km
Perigee altitude
482.713 km
Semi-major axis
6,863.133 km
Eccentricity
0.00033
Inclination
43.0015°
RAAN
141.1839°
Arg. of periapsis
282.8992°
True anomaly
77.18596°
Mean anomaly
77.1488°
Eccentric anomaly
77.16738°
Mean motion
3.81733 °/min
Orbital period
94.31 mins
BSTAR
0.000045105
Loading maneuver chart data...
Computing Atmospheric mass density...
Loading historical data...
Loading historical data...
Loading historical data...
Loading historical data...
Loading historical data...
Loading historical data...
Loading historical data...

Documentation

Showing up to 5 results
|